Location: Bagnara
(41.0500°N, 14.7833°E)
Time: 10:21:24
(UTC+00:00)

ASTEX 1 - Pass Details

Date: 20 June 2021
Orbit: 720 x 743 km, 92.7° (Epoch: 03 August)

Event Time Altitude Azimuth Distance (km) Brightness Sun altitude
Exits shadow 01:38:23 - 162° (SSE) 2,346 5.7 -16.1°
Reaches altitude 10° 01:38:40 10° 161° (SSE) 2,235 5.6 -16.0°
Maximum altitude 01:43:34 64° 81° (E) 812 3.8 -15.5°
Drops below altitude 10° 01:48:27 10° 1° (N) 2,237 6.7 -14.9°
Sets 01:50:45 0° 358° (N) 3,160 7.5 -14.6°
